Theta_e
316 316 315 313 311 309 307 330 317 327 329 316 318 315 317 308 318 320 318 319 318 315 314 314 313 312 315 317 318 314 318 314 309 311 318 320 317 314 313 307 307 310 308 309
317 316 315 313 310 309 328 325 320 327 326 313 314 319 316 317 317 317 317 315 318 318 316 312 314 314 316 315 315 314 316 310 305 307 312 316 313 315 315 314 313 308 305 307
317 316 315 312 310 310 320 325 316 319 321 323 318 315 315 314 317 316 318 317 318 316 314 316 313 313 315 314 314 319 313 308 306 302 306 310 308 310 314 312 307 308 308 310
317 316 315 313 311 310 320 326 321 322 315 316 316 317 316 313 312 316 318 316 315 313 311 312 311 312 312 313 311 312 311 306 308 308 308 308 306 305 306 305 306 303 306 307
317 316 315 314 311 309 326 321 320 324 322 319 317 309 314 312 313 315 313 313 312 312 310 311 309 310 311 310 314 312 313 306 307 305 307 307 304 306 306 306 306 306 306 307
317 317 316 314 312 312 319 321 326 323 311 317 316 317 314 313 314 314 315 314 312 311 312 314 314 315 314 313 311 310 309 307 305 302 307 306 302 307 308 308 310 311 307 318
318 317 316 315 313 311 321 318 320 316 315 315 315 313 314 312 314 313 313 314 312 316 318 316 315 313 313 312 311 312 308 309 307 303 305 297 308 313 311 308 310 312 315 317
318 317 317 316 314 312 320 321 318 316 314 315 312 311 312 313 313 312 312 313 315 315 312 308 307 308 308 310 311 311 311 309 304 301 301 304 305 311 310 308 307 312 315 316
318 317 317 316 315 312 320 320 322 319 313 312 314 311 312 311 312 311 310 315 316 313 310 308 303 302 305 304 306 312 311 310 305 303 297 295 307 311 312 312 301 316 315 314
317 317 317 316 316 313 316 320 323 320 314 315 313 311 312 314 311 310 312 311 311 312 308 305 304 304 307 301 302 305 307 306 303 302 299 302 311 311 312 298 304 314 315 315
316 317 317 316 315 315 315 322 323 317 316 318 314 313 313 314 312 309 313 309 311 310 306 306 307 306 309 306 307 305 304 301 300 302 298 297 314 312 305 312 315 316 317 317
316 316 316 316 315 315 313 320 323 322 317 318 318 317 319 317 318 315 314 312 311 312 309 311 309 306 307 305 300 310 301 304 303 305 305 313 315 314 317 318 317 318 318 319
315 316 316 316 315 315 313 318 322 320 317 318 317 316 319 320 319 321 313 316 314 315 316 311 309 305 307 302 304 306 309 311 306 307 311 313 315 317 316 318 316 318 318 317
314 315 316 316 315 314 313 319 321 320 317 310 314 320 317 320 320 318 318 317 317 317 316 311 309 306 312 305 308 307 309 310 309 308 312 314 315 316 318 317 318 318 319 320
314 314 315 315 315 314 315 321 324 321 315 311 314 318 317 318 318 316 317 316 315 315 312 310 308 314 311 310 309 307 312 310 306 305 312 313 314 317 319 317 317 320 319 319
314 314 315 314 314 313 319 317 323 322 320 314 311 317 313 316 317 316 316 316 316 314 313 312 314 315 312 305 304 312 313 315 315 313 317 314 317 317 319 318 319 320 320 322
314 314 314 314 313 315 315 313 315 310 319 314 311 311 313 315 316 316 315 317 314 314 312 311 312 312 313 309 304 312 315 316 316 318 316 314 315 315 319 320 320 320 322 323
314 313 313 313 312 310 313 319 312 313 317 316 309 311 311 317 313 312 318 313 314 314 312 313 311 313 312 306 312 315 315 316 314 315 317 317 318 319 319 321 321 319 319 319
313 313 313 315 314 318 319 313 311 322 316 311 311 306 307 316 315 317 315 315 309 317 311 311 312 309 305 310 312 315 314 313 314 317 318 318 317 319 319 321 320 318 319 320
313 314 315 314 318 312 315 316 315 315 315 313 308 313 307 312 312 311 311 313 308 306 312 316 309 307 316 316 315 316 318 318 318 316 315 317 318 319 319 318 320 319 320 319
317 315 315 317 309 317 316 311 309 312 307 310 310 310 310 315 309 310 314 308 310 303 309 308 305 307 314 314 316 318 318 319 319 320 321 322 322 319 318 318 319 320 320 320
309 311 315 318 314 312 307 307 310 307 307 311 309 310 314 315 318 311 311 307 308 300 313 306 302 310 314 315 316 317 319 319 320 321 321 323 322 319 318 319 318 317 318 318
318 314 311 313 311 297 300 299 304 306 310 312 314 310 313 315 314 312 310 302 302 311 304 302 309 315 317 317 317 316 319 320 321 322 322 322 319 319 317 313 313 313 313 316
308 306 293 304 302 304 306 307 311 313 317 313 313 311 311 312 308 310 301 306 308 299 298 300 309 314 317 318 317 317 316 320 321 321 320 317 317 314 314 313 313 313 312 314
305 307 297 304 309 313 314 313 314 314 318 315 312 312 311 308 305 306 305 300 298 300 301 309 312 318 319 318 318 319 320 321 319 319 318 315 313 311 311 312 313 314 315 315
307 307 305 309 309 309 310 311 311 315 314 316 314 307 303 302 304 302 299 298 297 304 308 311 315 320 321 321 321 322 322 320 319 314 313 311 310 310 311 313 312 313 315 315
306 304 310 310 309 307 308 310 310 318 312 305 307 300 300 307 301 299 305 301 307 310 311 312 321 321 322 322 322 323 321 319 316 315 311 311 311 312 310 307 309 312 311 312
Wind_Speed
24 26 26 25 22 18 3 9 3 9 7 9 10 11 2 4 6 5 2 7 7 2 2 4 3 4 7 3 6 10 8 10 13 16 16 10 8 13 16 14 13 11 8 16
25 27 27 26 23 15 8 7 6 6 8 8 8 5 7 3 7 2 3 2 5 2 1 5 4 2 8 3 6 9 12 8 11 12 15 20 7 12 7 13 16 16 15 12
25 27 28 27 23 14 5 7 6 6 9 10 14 9 10 8 2 3 2 1 3 5 6 4 3 7 8 1 5 7 5 13 15 13 18 16 13 12 14 15 13 14 15 19
25 27 29 31 29 15 5 4 5 6 7 8 6 2 2 6 8 2 2 3 5 5 5 5 8 2 5 8 10 6 9 12 13 14 16 16 18 18 18 19 19 20 19 22
24 26 28 31 35 34 4 8 7 1 3 3 7 6 6 6 5 7 6 9 4 4 6 6 9 2 6 7 3 7 8 11 9 15 16 18 16 16 17 17 17 18 18 17
23 24 26 29 32 27 6 6 2 6 5 5 8 1 4 0 3 2 6 5 6 7 8 6 9 9 10 9 8 10 11 11 11 12 12 8 14 8 8 7 8 10 10 11
21 22 24 25 27 23 8 6 7 7 2 6 6 3 0 2 3 6 4 4 5 7 6 9 13 11 11 9 10 10 11 7 9 12 11 15 7 3 6 7 11 11 5 13
19 20 21 23 24 25 8 7 6 6 5 6 3 4 1 3 4 6 6 2 6 5 7 9 10 9 7 11 6 8 5 8 8 9 11 13 11 14 6 9 10 8 7 9
17 18 19 20 22 24 10 8 8 6 8 7 8 4 2 8 5 6 4 2 5 7 8 8 6 8 4 3 8 6 9 5 8 10 12 11 6 7 5 9 12 11 7 10
16 17 18 19 20 21 10 4 11 6 7 8 6 4 7 4 5 6 4 1 5 5 8 9 10 8 3 6 9 6 7 9 11 11 12 9 11 8 7 11 7 11 11 11
15 16 16 17 19 19 12 3 7 7 6 5 4 2 3 3 4 8 8 6 8 6 6 5 4 5 1 4 9 4 7 7 9 10 6 13 11 7 6 13 13 15 16 16
13 14 15 16 16 18 16 5 6 4 6 8 3 4 4 6 7 9 4 7 3 6 5 1 5 4 5 6 7 4 8 6 8 9 10 8 6 5 9 10 13 16 17 19
12 13 13 14 14 16 13 7 6 6 6 6 7 4 3 6 8 6 7 3 5 3 6 6 4 4 6 7 5 7 5 8 7 9 2 3 6 8 9 13 16 17 17 19
11 12 12 13 13 14 13 7 6 6 6 7 7 5 3 2 2 4 8 6 4 4 4 5 5 5 3 6 7 6 9 8 8 12 13 10 10 8 13 15 17 17 18 18
11 11 12 12 13 14 11 6 2 4 7 7 5 5 2 7 4 6 7 8 7 4 5 5 5 3 3 8 10 7 8 7 9 9 11 10 15 14 18 18 17 18 16 15
11 10 11 12 12 13 8 5 4 5 6 6 5 6 4 3 4 5 8 7 5 6 5 5 4 1 2 7 9 9 11 8 12 11 13 12 18 20 18 16 18 17 17 19
10 10 11 11 10 8 5 7 6 7 7 5 5 5 6 4 5 6 6 9 6 6 7 6 7 8 5 9 12 13 6 5 8 10 13 14 17 17 17 17 18 16 20 22
10 10 11 12 11 11 7 4 6 6 6 4 5 2 5 7 5 6 4 6 6 5 7 8 7 7 7 6 5 5 7 9 11 13 16 18 19 17 18 16 15 22 22 21
11 12 13 6 6 4 6 5 2 5 5 5 3 7 4 5 5 2 4 4 6 3 5 9 6 7 6 3 2 5 9 12 15 18 19 20 20 23 22 22 22 22 21 20
11 8 7 5 6 5 5 5 6 7 6 5 6 2 3 4 4 6 3 4 5 4 1 3 6 9 5 3 2 5 10 14 17 19 20 22 20 20 22 22 21 20 19 18
6 5 1 6 5 5 5 4 5 4 5 6 5 4 2 3 5 1 2 4 3 5 3 4 3 2 3 1 5 8 12 15 16 16 20 20 17 21 19 21 22 21 20 19
4 5 5 3 5 5 5 5 4 5 3 5 7 8 4 5 2 4 1 4 3 4 2 4 2 4 3 5 9 13 15 15 17 19 20 20 20 17 17 20 20 20 18 17
6 6 4 2 2 2 7 8 5 4 5 6 5 8 5 4 4 3 1 3 5 2 5 4 3 6 3 8 11 15 17 16 18 18 19 19 19 17 13 15 14 15 14 15
4 5 3 6 7 7 5 6 3 7 1 7 6 6 5 1 4 2 5 3 4 4 5 1 2 1 5 9 13 15 18 18 18 18 17 15 15 16 16 13 13 14 14 14
4 4 5 8 8 2 2 4 2 4 2 3 5 3 4 2 3 3 2 3 5 6 2 1 5 8 9 12 14 16 17 16 14 16 16 17 14 12 13 13 13 13 12 12
5 7 8 6 4 6 7 7 6 5 5 2 4 4 3 5 4 5 6 5 4 2 3 6 7 10 10 12 14 16 14 12 13 12 11 12 11 11 13 13 12 13 13 13
5 6 7 7 5 5 5 1 2 2 7 4 1 3 5 4 4 5 5 5 4 5 6 7 9 8 10 12 15 12 9 10 9 11 10 10 12 11 10 13 14 13 13 13
Wind_Direction
343 343 344 346 345 340 254 273 190 142 192 221 229 248 51 8 154 197 203 319 351 334 103 232 257 294 73 25 319 298 355 311 293 291 300 285 271 289 293 282 277 262 298 300
345 345 346 347 346 343 308 260 101 166 222 244 200 98 153 311 201 239 204 162 322 309 268 291 264 30 96 359 305 357 2 272 289 269 244 218 213 273 247 282 284 283 291 280
348 347 347 347 350 352 279 280 164 154 210 274 288 160 189 145 7 112 2 98 262 242 236 186 296 240 140 275 335 26 303 267 264 284 310 325 307 291 278 289 281 288 283 299
350 350 350 348 346 352 262 255 30 10 202 192 265 223 164 206 169 164 262 174 298 318 289 253 243 281 278 195 121 233 253 279 291 291 300 298 291 284 280 273 276 276 290 295
353 353 354 353 349 336 264 323 332 221 353 149 254 142 208 246 108 299 164 273 111 296 282 329 330 317 273 282 142 253 280 284 278 280 276 261 274 284 280 279 277 273 277 278
354 355 357 358 359 342 19 0 316 279 119 237 235 68 82 255 27 126 13 346 279 225 28 7 325 305 295 279 266 280 283 285 285 281 292 307 271 307 309 293 317 314 299 36
355 355 357 360 358 6 339 17 289 277 202 263 353 29 311 205 26 321 85 307 284 47 331 295 256 257 259 269 270 270 253 254 274 274 287 270 76 82 342 306 308 289 348 335
355 356 358 358 357 356 324 12 336 327 302 3 181 227 198 206 166 249 293 94 360 297 276 266 239 220 227 232 214 284 265 284 279 280 261 296 308 43 13 354 309 348 350 325
353 356 357 357 356 353 317 42 336 298 306 74 4 253 285 280 220 157 225 135 298 284 265 246 247 267 34 194 181 232 274 196 274 286 297 292 73 67 13 319 273 42 348 324
349 353 356 356 355 352 323 30 1 281 298 72 324 336 345 356 305 295 108 204 233 237 261 251 256 278 62 268 254 186 221 228 265 272 272 284 55 5 312 264 13 330 317 316
344 348 351 354 353 351 342 33 18 338 315 53 341 322 284 226 247 289 82 223 197 241 261 280 286 263 145 269 272 275 270 286 278 275 257 267 43 319 345 342 318 325 317 308
338 341 346 350 350 348 340 316 20 336 267 10 324 318 341 310 349 323 176 350 325 2 290 283 320 262 249 280 290 115 266 248 326 316 326 341 342 297 335 318 313 314 317 319
330 334 339 343 344 345 344 315 349 290 266 217 215 165 121 237 244 314 292 130 8 223 342 325 323 291 303 277 277 295 234 232 267 306 354 308 316 325 340 323 329 317 308 296
322 326 331 335 336 334 327 313 355 306 298 278 116 139 187 20 220 291 295 328 266 317 257 259 271 271 105 286 329 294 311 319 281 279 270 314 312 273 318 317 314 316 311 303
316 318 324 326 327 322 299 275 347 356 326 329 343 170 134 213 208 242 229 239 230 230 218 231 254 271 277 257 261 276 256 283 272 298 294 302 295 303 306 308 303 297 287 295
309 309 313 317 321 322 279 207 146 7 349 279 264 92 180 184 230 223 216 231 250 265 270 261 253 117 263 274 282 317 307 318 324 316 345 321 295 295 298 293 303 307 302 293
301 299 302 304 309 303 301 2 12 346 300 257 265 193 142 200 211 184 199 211 237 251 268 251 267 276 197 269 278 296 335 315 299 303 288 284 295 301 316 304 299 302 295 303
295 293 293 292 292 269 243 133 243 283 265 258 270 189 175 191 201 189 199 214 207 233 254 267 255 264 227 260 358 353 326 316 307 304 301 305 307 300 300 309 307 308 303 298
293 291 287 272 220 236 61 101 249 253 294 298 243 280 109 174 259 2 186 262 259 243 246 251 250 261 247 117 29 309 336 327 308 301 305 302 303 308 310 313 311 297 302 305
292 271 211 198 47 130 169 175 202 195 180 221 259 6 225 245 163 197 283 180 261 293 85 138 232 260 80 101 3 333 300 301 307 303 306 305 310 307 306 312 303 305 301 301
221 226 340 80 137 235 215 244 232 149 214 193 237 253 254 166 286 312 126 330 327 286 115 268 200 162 135 44 302 306 315 304 305 320 316 310 305 307 320 311 305 304 300 299
341 303 251 247 225 228 243 211 175 230 220 155 193 172 252 111 312 269 124 263 193 264 13 255 238 129 99 335 334 322 315 315 334 317 310 307 316 331 309 310 326 326 319 321
252 226 234 214 180 332 225 191 200 207 169 150 189 169 206 149 234 274 255 247 236 257 238 273 80 125 341 351 332 323 321 331 324 319 314 325 335 333 330 317 314 311 306 301
254 200 261 226 193 234 211 246 44 68 244 168 201 162 184 278 207 212 230 239 296 293 255 166 114 330 339 337 331 326 324 327 330 318 334 344 323 332 325 322 315 312 306 306
263 250 234 216 259 7 338 318 50 169 252 192 199 245 218 176 279 280 296 244 234 224 340 288 23 33 3 337 329 327 323 333 319 349 347 340 346 326 321 321 319 317 309 307
244 226 251 257 275 232 179 198 219 131 210 186 268 182 229 191 230 183 228 264 277 59 292 324 354 28 352 342 328 319 336 332 359 358 348 338 332 326 321 327 336 332 337 335
249 227 241 271 306 353 6 268 139 127 248 218 248 246 198 300 225 210 240 237 263 299 341 350 58 10 348 337 324 333 321 9 8 5 352 344 338 336 347 350 345 342 349 342